• MPC Preparation (Info)

  • MPEC 2013-U08 : 2013 UC

    The following Minor Planet Electronic Circular may be linked-to from your own Web pages, but must not otherwise be redistributed electronically.

    A form allowing access to any MPEC is at the bottom of this page.


    Read MPEC 2013-U07 Read MPEC 2013-U09


    M.P.E.C. 2013-U08                                Issued 2013 Oct. 17, 14:32 UT
    
         The Minor Planet Electronic Circulars contain information on unusual
             minor planets and routine data on comets.  They are published
       on behalf of Commission 20 of the International Astronomical Union by the
              Minor Planet Center, Smithsonian Astrophysical Observatory,
                              Cambridge, MA 02138, U.S.A.
    
                 Prepared using the Tamkin Foundation Computer Network
    
                                  MPC@CFA.HARVARD.EDU
                URL https://www.minorplanetcenter.net/    ISSN 1523-6714
    
                                        2013 UC
    
    Observations:
         K13U00C* C2013 10 16.28579 02 55 28.52 +33 57 34.9          19.9 VqEU008G96
         K13U00C  C2013 10 16.29216 02 55 29.52 +33 57 30.7          19.9 VqEU008G96
         K13U00C  C2013 10 16.30076 02 55 30.89 +33 57 24.7          20.1 VqEU008G96
         K13U00C  C2013 10 16.30712 02 55 31.86 +33 57 20.3          19.9 VqEU008G96
         K13U00C 6C2013 10 16.41147 02 55 50.03 +33 56 11.7          20.6 RtEU008F65
         K13U00C 6C2013 10 16.41273 02 55 50.26 +33 56 10.2          20.0 RtEU008F65
         K13U00C  C2013 10 16.41713 02 55 49.06 +33 56 02.0          20.0 VqEU008G96
         K13U00C  C2013 10 16.42727 02 55 50.64 +33 55 54.2          20.1 VqEU008G96
         K13U00C  C2013 10 16.43456 02 55 51.78 +33 55 48.9          20.1 VqEU008G96
         K13U00C  C2013 10 16.44185 02 55 52.92 +33 55 43.1          20.0 VqEU008G96
         K13U00C KC2013 10 16.97157 02 57 25.52 +33 49 01.8                qEU008J95
         K13U00C KC2013 10 16.99399 02 57 29.15 +33 48 46.5          19.9 RqEU008J95
         K13U00C KC2013 10 17.20562102 58 05.55 +33 46 11.6          19.9  rEU008H21
         K13U00C KC2013 10 17.21147902 58 06.52 +33 46 06.5          19.9  rEU008H21
         K13U00C KC2013 10 17.21703902 58 07.38 +33 46 02.8          19.8  rEU008H21
         K13U00C  C2013 10 17.38717 02 58 34.52 +33 43 58.0          19.8 VqEU008G96
         K13U00C  C2013 10 17.39256 02 58 35.37 +33 43 53.4          20.0 VqEU008G96
         K13U00C  C2013 10 17.39796 02 58 36.21 +33 43 49.2          19.8 VqEU008G96
         K13U00C  C2013 10 17.40334 02 58 37.04 +33 43 44.6          20.2 VqEU008G96
    
    Observer details:
    F65 Haleakala-Faulkes Telescope North.  Observer R. Miles.  2.0-m f/10.0
        Ritchey-Chretien + CCD.
    G96 Mt. Lemmon Survey.  Observers J. A. Johnson, A. Boattini.  Measurers
        A. Boattini, E. J. Christensen, A. R. Gibbs, A. D. Grauer, R. E. Hill,
        J. A. Johnson, R. A. Kowalski, S. M. Larson, F. C. Shelly.  1.5-m
        reflector + CCD.
    H21 Astronomical Research Observatory, Westfield.  Observer R. Holmes.
        Measurers S. Foglia, L. Buzzi, H. Devore, A. Kostin, T. Linder,
        T. Lister. T.  0.61-m f/4.0 astrograph + CCD.
    J95 Great Shefford.  Observer P. Birtwhistle.  0.40-m f/6.0 Schmidt-Cassegrain
        + CCD.
    
    Orbital elements:
    2013 UC                                                  Earth MOID = 0.2216 AU
    Epoch 2013 Nov. 4.0 TT = JDT 2456600.5                  MPC
    M   5.07336              (2000.0)            P               Q
    n   0.26959648     Peri.  147.67052     +0.88088939     -0.46414808
    a   2.3731575      Node   240.25640     +0.40836937     +0.84433775
    e   0.4908794      Incl.    6.13148     +0.23930806     +0.26769446
    P   3.66           H   21.4           G   0.15           U   8
    Residuals in seconds of arc
    131016 G96  0.7+  0.2+    131016 G96  0.1-  0.1+    131017 H21  0.6+  0.2-
    131016 G96  0.7+  0.2+    131016 G96  0.2-  0.4+    131017 G96  0.7-  0.1+
    131016 G96  0.8+  0.0     131016 G96  0.4-  0.2+    131017 G96  0.4-  0.2-
    131016 G96  0.4+  0.1-    131016 J95  0.3-  0.2-    131017 G96  0.3-  0.1-
    131016 F65  1.9-  0.4-    131016 J95  0.3+  0.6+    131017 G96  0.2-  0.3-
    131016 F65  1.5-  1.1-    131017 H21  0.2+  0.4+
    131016 G96  0.1+  0.2+    131017 H21  0.8+  0.5-
    
    Ephemeris:
    2013 UC                  a,e,i = 2.37, 0.49, 6                   q = 1.2082
    Date    TT    R. A. (2000) Decl.     Delta      r     Elong.  Phase     V
    2013 09 17    01 24 32.6 +32 11 55   0.3085  1.2494   137.3    33.1    20.7
    ...
    2013 10 02    02 11 12.2 +34 55 11   0.2645  1.2182   141.1    31.1    20.3
    ...
    2013 10 10    02 36 37.0 +34 50 48   0.2498  1.2101   144.2    28.9    20.1
    ...
    2013 10 16    02 54 37.9 +34 00 56   0.2428  1.2082   147.2    26.5    19.9
    2013 10 17    02 57 29.3 +33 48 54   0.2419  1.2083   147.8    26.1    19.9
    2013 10 18    03 00 17.7 +33 35 51   0.2412  1.2084   148.4    25.6    19.9
    ...
    2013 10 24    03 15 54.4 +31 57 53   0.2389  1.2113   152.3    22.5    19.8
    ...
    2013 11 01    03 32 56.3 +29 05 22   0.2417  1.2206   158.4    17.4    19.7
    ...
    2013 11 16    03 53 36.5 +22 53 01   0.2671  1.2540   172.1     6.2    19.5
    
    A. U. Tomatic                (C) Copyright 2013 MPC           M.P.E.C. 2013-U08
    

    Read MPEC 2013-U07 Read MPEC 2013-U09


    MPEC number:

    Enter an MPEC number in one of the following forms:

    • 1997-B01 (the full form)
    • J97B01 (the packed version of the full form)
    • B01 (the abbreviated form)